[[{"header":{"parameterUnit":"m.s-1","parameterCategory":1,"la1":30.2991,"la2":30.254,"lo1":-89.0895,"lo2":-89.0444,"dy":0.0017,"dx":0.0017,"nx":28,"ny":28,"refTime":"2025-07-19T09:00:00:Z","depth":0,"parameterNumber":2,"parameterNumberName":"U-component_of_WINDS"},"data":[0,0,0,0,0,0,0,0,0,0,0,0,0,0,0,0,0,0,0,0,0,0,0,0,0,0,0,0,0,0,0,0,0,0,0,0,0,0,0,0,0,0,0,0,0,0,0,0,0,0,0,0,0,0,0,0,0,0,3.4191,3.4193,0,3.4327,3.4329,3.433,3.4314,3.4312,3.431,3.4308,3.4446,3.4451,3.4457,0,0,0,0,0,0,0,0,0,0,0,0,0,3.3915,3.392,3.4191,3.4193,3.4195,3.4327,3.4329,3.433,3.4315,3.4312,3.4309,3.4307,3.4444,3.4451,3.4457,0,0,0,0,0,0,0,0,0,0,0,0,0,3.4041,3.3922,3.4191,3.4203,3.4205,3.4326,3.4329,3.4331,3.4315,3.4312,3.4309,3.4306,3.4442,3.445,3.4458,3.4576,0,0,3.4484,3.4488,0,0,0,0,0,0,0,0,3.4034,3.4052,3.4199,3.4202,3.4205,3.43,3.4282,3.4413,3.4316,3.4273,3.4308,3.4304,3.44,3.4412,3.4444,3.4583,3.4589,3.4485,3.449,3.4494,3.4496,0,0,0,0,0,0,0,3.4026,3.4046,3.4245,3.4201,3.4205,3.42,3.4215,3.4307,3.4353,3.4277,3.4276,3.4292,3.4401,3.4436,3.4447,3.4591,3.4485,3.4493,3.4498,3.4501,3.4829,3.4832,0,0,0,0,0,0,3.4014,3.4038,3.424,3.4249,3.411,3.4208,3.4224,3.4273,3.4352,3.4361,3.4295,3.4291,3.4423,3.4437,3.4452,3.4592,3.4494,3.4502,3.4507,3.4825,3.483,3.4833,0,0,0,0,0,0,3.4008,3.4032,3.4235,3.4144,3.4169,3.4216,3.4271,3.4277,3.4313,3.4366,3.4374,3.4323,3.4421,3.444,3.4545,3.4597,3.4506,3.4514,3.4821,3.4827,3.4832,3.4876,0,0,0,0,0,0,3.4001,3.403,3.4076,3.4145,3.4174,3.4326,3.4275,3.4282,3.4328,3.4324,3.4394,3.4402,3.442,3.4532,3.4553,3.4607,3.452,3.4816,3.4824,3.483,3.487,3.4882,3.4892,0,0,0,0,0,3.3991,3.4084,3.4079,3.4103,3.4233,3.4329,3.4346,3.4365,3.4332,3.4378,3.4412,3.44,3.4589,3.4543,3.4567,3.4624,3.4813,3.4822,3.4829,3.4865,3.488,3.4892,0,0,0,0,0,0,3.402,3.4093,3.4088,3.4207,3.4262,3.4327,3.4385,3.438,3.4446,3.444,3.446,3.4476,3.458,3.4613,3.4561,3.474,3.4696,3.4709,3.4715,3.473,3.4741,3.4729,3.4527,0,0,0,0,0,3.4041,3.4114,3.4174,3.4272,3.43,3.4338,3.4381,3.439,3.4448,3.4471,3.4513,3.4569,3.4641,3.4687,3.4757,3.4875,3.4888,3.4926,3.4937,3.4946,3.4957,3.5019,3.5035,3.486,3.486,3.486,0,0,3.4083,3.4132,3.4177,3.4279,3.4323,3.4397,3.4358,3.4438,3.4493,3.4484,3.4584,3.4617,3.4681,3.4792,3.4843,3.4822,3.5008,3.4957,3.4963,3.4969,3.5029,3.5045,3.506,3.4865,3.4864,3.4864,0,0,3.4198,3.4244,3.4329,3.4374,3.4441,3.4465,3.4486,3.4551,3.4572,3.4674,3.4667,3.4732,3.4856,3.4901,3.494,3.507,3.5061,3.5092,3.515,3.521,3.5224,3.5236,3.5279,3.5295,3.5103,3.5103,3.5103,0,3.4242,3.4354,3.4374,3.4454,3.4498,3.4494,3.4579,3.4621,3.4708,3.4737,3.4713,3.4866,3.4909,3.5029,3.5061,3.5094,3.5116,3.5083,3.5221,3.5233,3.5245,3.5286,3.5303,3.5106,3.5106,3.5105,3.5105,0,3.4403,3.4481,3.4542,3.4624,3.4676,3.4759,3.4789,3.4838,3.4843,3.487,3.4971,3.5023,3.5101,3.513,3.5137,3.5251,3.5235,3.5216,3.5171,3.5264,3.5303,3.532,3.511,3.5109,3.5108,3.5108,0,0,3.454,3.4631,3.4653,3.4689,3.4762,3.4822,3.4904,3.498,3.502,3.508,3.5147,3.5252,3.5233,3.5277,3.5289,3.5342,3.5437,3.5316,3.5317,3.5333,3.5563,3.5574,3.5593,3.5433,3.5436,3.5439,3.5556,0,3.4659,3.4804,3.4823,3.4951,3.5021,3.5017,3.5088,3.514,3.5167,3.5229,3.5259,3.5331,3.5303,3.5329,3.5382,3.5415,3.5483,3.5407,3.5493,3.5496,3.5474,3.5614,3.5627,3.5735,3.5572,3.5575,3.5577,0,3.4817,3.488,3.5015,3.5076,3.5106,3.517,3.5239,3.5301,3.5358,3.5374,3.5423,3.5427,3.5509,3.5463,3.5576,3.5524,3.5561,3.5582,3.5586,3.5593,3.554,3.5621,3.5771,3.5786,3.5601,3.5599,3.5598,0,3.4899,3.5018,3.5113,3.5144,3.5219,3.5263,3.5296,3.5351,3.5395,3.5456,3.5484,3.5555,3.5592,3.5646,3.5668,3.5633,3.5779,3.5735,3.5792,3.5791,3.582,3.5818,3.5975,3.5849,3.5849,3.5849,3.5849,0,3.5028,3.511,3.515,3.5208,3.5298,3.532,3.5409,3.544,3.5488,3.5551,3.5554,3.5612,3.564,3.5702,3.572,3.5809,3.5827,3.584,3.5844,3.5839,3.5836,3.5861,3.5852,3.5853,3.5852,3.5851,3.5851,0,3.5133,3.5164,3.5267,3.5329,3.5346,3.541,3.5462,3.5518,3.5544,3.5624,3.5643,3.5684,3.5758,3.5786,3.5876,3.5888,3.599,3.5989,3.597,3.597,3.6023,3.6017,3.62,3.6223,3.6085,3.6086,3.6087,0,3.5212,3.5275,3.5343,3.5385,3.542,3.5489,3.5533,3.5556,3.5602,3.5671,3.5718,3.5792,3.5851,3.5969,3.6006,3.6074,3.6072,3.6132,3.6083,3.6074,3.6069,3.6064,3.6069,3.614,3.6141,3.6143,3.6143,0,3.5348,3.5359,3.5424,3.5493,3.5545,3.5601,3.5655,3.5689,3.572,3.5772,3.5847,3.5893,3.5985,3.6056,3.6127,3.6159,3.6156,3.6159,3.6175,3.6169,3.6154,3.6159,3.5991,3.6154,3.6153,3.6152,3.6152,3.6151,3.544,3.5494,3.555,3.5621,3.5664,3.5714,3.5768,3.5801,3.5864,3.594,3.595,3.603,3.6084,3.6178,3.6214,3.6275,3.6259,3.6284,3.6289,3.6294,3.6296,3.6147,3.6289,3.6289,3.6288,3.6288,3.6288,0,3.5573,3.5608,3.5673,3.5748,3.5803,3.5797,3.5855,3.5901,3.5972,3.6023,3.6082,3.6167,3.6236,3.6278,3.6348,3.6389,3.6389,3.6406,3.6401,3.6408,3.6308,3.6286,3.6405,3.6405,3.6405,3.6405,3.6404,3.6404,3.5648,3.5738,3.5756,3.5867,3.5902,3.598,3.6014,3.6059,3.61,3.6195,3.6253,3.628,3.6327,3.64,3.6462,3.6473,3.6497,3.6515,3.6523,3.6428,3.6416,3.6404,3.6383,3.6521,3.6521,3.6618,3.6619,3.662]},{"header":{"parameterUnit":"m.s-1","parameterCategory":1,"la1":30.2991,"la2":30.254,"lo1":-89.0895,"lo2":-89.0444,"dy":0.0017,"dx":0.0017,"nx":28,"ny":28,"refTime":"2025-07-19T09:00:00:Z","depth":0,"parameterNumber":3,"parameterNumberName":"V-component_of_WINDS"},"data":[0,0,0,0,0,0,0,0,0,0,0,0,0,0,0,0,0,0,0,0,0,0,0,0,0,0,0,0,0,0,0,0,0,0,0,0,0,0,0,0,0,0,0,0,0,0,0,0,0,0,0,0,0,0,0,0,0,0,2.0802,2.0803,0,2.0901,2.0902,2.0903,2.0893,2.0891,2.0889,2.0888,2.099,2.0994,2.0998,0,0,0,0,0,0,0,0,0,0,0,0,0,2.0604,2.0607,2.0802,2.0803,2.0804,2.0901,2.0902,2.0903,2.0893,2.0891,2.0889,2.0887,2.0989,2.0994,2.0999,0,0,0,0,0,0,0,0,0,0,0,0,0,2.0695,2.0608,2.0802,2.0811,2.0812,2.09,2.0902,2.0904,2.0893,2.0891,2.0888,2.0886,2.0987,2.0993,2.0999,2.1085,0,0,2.1019,2.1021,0,0,0,0,0,0,0,0,2.069,2.0702,2.0808,2.081,2.0812,2.0882,2.0869,2.0964,2.0894,2.0863,2.0888,2.0885,2.0956,2.0965,2.0988,2.109,2.1094,2.1019,2.1023,2.1026,2.1027,0,0,0,0,0,0,0,2.0683,2.0698,2.0841,2.081,2.0812,2.081,2.082,2.0887,2.0921,2.0865,2.0865,2.0876,2.0957,2.0982,2.0991,2.1096,2.1019,2.1024,2.1028,2.1031,2.127,2.1272,0,0,0,0,0,0,2.0675,2.0693,2.0838,2.0844,2.0744,2.0815,2.0827,2.0862,2.092,2.0927,2.0878,2.0875,2.0973,2.0983,2.0994,2.1097,2.1026,2.1031,2.1035,2.1267,2.1271,2.1273,0,0,0,0,0,0,2.0671,2.0688,2.0834,2.0768,2.0787,2.0821,2.0861,2.0865,2.0891,2.093,2.0936,2.0898,2.0971,2.0986,2.1062,2.1101,2.1034,2.104,2.1264,2.1268,2.1272,2.1305,0,0,0,0,0,0,2.0665,2.0686,2.072,2.0769,2.079,2.09,2.0863,2.0869,2.0901,2.0899,2.0951,2.0957,2.0971,2.1053,2.1068,2.1108,2.1045,2.1261,2.1266,2.1271,2.13,2.1309,2.1317,0,0,0,0,0,2.0658,2.0725,2.0721,2.0739,2.0832,2.0902,2.0915,2.0928,2.0905,2.0938,2.0963,2.0956,2.1094,2.1061,2.1078,2.112,2.1259,2.1265,2.127,2.1296,2.1307,2.1316,0,0,0,0,0,0,2.0681,2.0732,2.0728,2.0814,2.0854,2.0901,2.0943,2.094,2.0988,2.0983,2.0999,2.101,2.1087,2.1111,2.1074,2.1205,2.1173,2.1183,2.1187,2.1198,2.1206,2.1198,2.105,0,0,0,0,0,2.0695,2.0748,2.079,2.0862,2.0882,2.0909,2.094,2.0947,2.0989,2.1006,2.1037,2.1079,2.1131,2.1166,2.1216,2.1303,2.1314,2.1341,2.1349,2.1356,2.1364,2.141,2.1422,2.1293,2.1292,2.1292,0,0,2.0727,2.0761,2.0794,2.0867,2.0899,2.0953,2.0923,2.0982,2.1022,2.1015,2.1089,2.1113,2.116,2.1242,2.1279,2.1264,2.1402,2.1363,2.1368,2.1373,2.1418,2.143,2.1441,2.1297,2.1296,2.1295,0,0,2.0812,2.0843,2.0906,2.0938,2.0986,2.1003,2.1018,2.1065,2.108,2.1154,2.115,2.1198,2.1288,2.1322,2.135,2.1445,2.144,2.1461,2.1505,2.155,2.156,2.1569,2.1602,2.1614,2.1469,2.1469,2.1469,0,2.0845,2.0926,2.0938,2.0997,2.1029,2.1024,2.1087,2.1117,2.118,2.1202,2.1184,2.1296,2.1328,2.1416,2.1439,2.1463,2.148,2.1456,2.1557,2.1567,2.1575,2.1607,2.162,2.1472,2.1471,2.1471,2.1471,0,2.0964,2.102,2.1064,2.1124,2.116,2.1221,2.1242,2.1278,2.1281,2.13,2.1374,2.1412,2.1469,2.1491,2.1495,2.158,2.1569,2.1554,2.1522,2.159,2.162,2.1632,2.1475,2.1474,2.1473,2.1473,0,0,2.1067,2.1131,2.1147,2.1173,2.1225,2.1269,2.1328,2.1384,2.1414,2.1456,2.1506,2.1582,2.1568,2.1601,2.1608,2.1648,2.172,2.1628,2.163,2.1644,2.1814,2.1825,2.1839,2.1716,2.1718,2.172,2.181,0,2.1157,2.1262,2.1274,2.1368,2.142,2.1415,2.1466,2.1504,2.1522,2.1569,2.1589,2.1642,2.162,2.164,2.1679,2.1703,2.1754,2.1696,2.1762,2.1765,2.1751,2.1855,2.1867,2.195,2.1822,2.1824,2.1825,0,2.1276,2.1321,2.142,2.1463,2.1485,2.1531,2.1582,2.1626,2.1668,2.1678,2.1714,2.1716,2.1777,2.1741,2.1825,2.1786,2.1813,2.1829,2.1832,2.1839,2.1799,2.1864,2.1977,2.1989,2.1844,2.1843,2.1841,0,2.1341,2.1426,2.1496,2.1518,2.1571,2.1603,2.1626,2.1665,2.1697,2.1742,2.1762,2.1813,2.1841,2.1881,2.1896,2.1869,2.1979,2.1945,2.1989,2.1989,2.2013,2.2011,2.2131,2.203,2.203,2.203,2.203,0,2.144,2.15,2.1525,2.1568,2.1636,2.1648,2.1714,2.1736,2.177,2.1817,2.1816,2.186,2.1877,2.1924,2.1936,2.2003,2.2016,2.2026,2.2029,2.2026,2.2025,2.2045,2.2039,2.2033,2.2033,2.2032,2.2031,0,2.1524,2.1543,2.1619,2.1661,2.1673,2.1721,2.1757,2.1798,2.1816,2.1875,2.1889,2.1917,2.1971,2.199,2.2057,2.2065,2.2142,2.214,2.2128,2.2129,2.2172,2.2167,2.2309,2.2328,2.2214,2.2215,2.2216,0,2.1586,2.1632,2.1679,2.171,2.1734,2.1784,2.1816,2.183,2.1863,2.1913,2.1948,2.2002,2.2045,2.2133,2.2158,2.2209,2.2208,2.2254,2.2215,2.2211,2.2208,2.2205,2.2209,2.2261,2.2262,2.2263,2.2264,0,2.1694,2.1701,2.1747,2.1796,2.1834,2.1874,2.1912,2.1938,2.1957,2.1994,2.205,2.2083,2.215,2.2203,2.2254,2.2278,2.2274,2.2276,2.2288,2.2287,2.2278,2.2283,2.2148,2.2273,2.2272,2.2271,2.2271,2.227,2.1769,2.1809,2.1848,2.1899,2.1929,2.1964,2.2005,2.2026,2.2073,2.2128,2.2133,2.2192,2.223,2.2298,2.2324,2.237,2.2358,2.2376,2.2381,2.2386,2.2388,2.227,2.238,2.238,2.2379,2.2379,2.2379,0,2.1876,2.19,2.1947,2.2,2.204,2.2032,2.2073,2.2107,2.2159,2.2196,2.2238,2.2301,2.2352,2.2381,2.2432,2.2463,2.2463,2.2476,2.2474,2.2479,2.2397,2.2381,2.2476,2.2476,2.2476,2.2476,2.2476,2.2476,2.1937,2.2004,2.2015,2.2097,2.2121,2.2178,2.2202,2.2235,2.2263,2.2333,2.2375,2.2394,2.2427,2.248,2.2526,2.2533,2.2552,2.2566,2.2572,2.2495,2.2485,2.2476,2.2461,2.257,2.2571,2.265,2.2651,2.2652]}]]